Time,TemperatureF,DewpointF,PressureIn,WindDirection,WindDirectionDegrees,WindSpeedMPH,WindSpeedGustMPH,Humidity,HourlyPrecipIn,Conditions,Clouds,dailyrainin,SoftwareType,DateUTC
2013-06-02 00:02:00,63.0,58.0,29.78,WNW,289,4.0,-999.0,84,-99.99,,,-99.99,,2013-06-02 05:02:00,
2013-06-02 00:12:00,63.0,58.0,29.78,WNW,289,4.0,-999.0,84,-99.99,,,-99.99,,2013-06-02 05:12:00,
2013-06-02 00:22:00,63.0,59.0,29.79,WNW,298,3.0,-999.0,86,-99.99,,,-99.99,,2013-06-02 05:22:00,
2013-06-02 00:32:00,63.0,59.0,29.78,WSW,255,4.0,-999.0,86,-99.99,,,-99.99,,2013-06-02 05:32:00,
2013-06-02 00:42:00,63.0,59.0,29.78,WSW,255,4.0,-999.0,86,-99.99,,,-99.99,,2013-06-02 05:42:00,
2013-06-02 00:52:00,63.0,58.0,29.78,WNW,285,4.0,-999.0,85,-99.99,,,-99.99,,2013-06-02 05:52:00,
2013-06-02 01:01:00,62.0,58.0,29.79,WNW,288,6.0,-999.0,86,-99.99,,,-99.99,,2013-06-02 06:01:00,
2013-06-02 01:12:00,62.0,58.0,29.78,WNW,287,3.0,-999.0,88,-99.99,,,-99.99,,2013-06-02 06:12:00,
2013-06-02 01:21:00,62.0,58.0,29.78,WNW,287,3.0,-999.0,88,-99.99,,,-99.99,,2013-06-02 06:21:00,
2013-06-02 01:32:00,61.0,58.0,29.78,WNW,285,4.0,-999.0,89,-99.99,,,-99.99,,2013-06-02 06:32:00,
2013-06-02 01:41:00,61.0,58.0,29.78,WNW,285,4.0,-999.0,89,-99.99,,,-99.99,,2013-06-02 06:41:00,
2013-06-02 01:52:00,61.0,58.0,29.78,West,274,3.0,-999.0,90,-99.99,,,-99.99,,2013-06-02 06:52:00,
2013-06-02 02:01:00,61.0,58.0,29.78,WNW,288,3.0,-999.0,91,-99.99,,,-99.99,,2013-06-02 07:01:00,
2013-06-02 02:11:00,61.0,58.0,29.78,WNW,288,3.0,-999.0,91,-99.99,,,-99.99,,2013-06-02 07:11:00,
2013-06-02 02:21:00,61.0,58.0,29.78,West,262,1.0,-999.0,91,-99.99,,,-99.99,,2013-06-02 07:21:00,
2013-06-02 02:31:00,60.0,58.0,29.78,WNW,292,2.0,-999.0,92,-99.99,,,-99.99,,2013-06-02 07:31:00,
2013-06-02 02:42:00,60.0,58.0,29.78,NW,324,3.0,-999.0,92,-99.99,,,-99.99,,2013-06-02 07:42:00,
2013-06-02 02:52:00,60.0,58.0,29.78,NW,324,3.0,-999.0,92,-99.99,,,-99.99,,2013-06-02 07:52:00,
2013-06-02 03:01:00,60.0,57.0,29.78,WSW,247,3.0,-999.0,90,-99.99,,,-99.99,,2013-06-02 08:01:00,
2013-06-02 03:11:00,60.0,57.0,29.78,WSW,247,3.0,-999.0,90,-99.99,,,-99.99,,2013-06-02 08:11:00,
2013-06-02 03:21:00,60.0,57.0,29.78,SW,230,4.0,-999.0,90,-99.99,,,-99.99,,2013-06-02 08:21:00,
2013-06-02 03:31:00,60.0,57.0,29.78,WNW,291,4.0,-999.0,91,-99.99,,,-99.99,,2013-06-02 08:31:00,
2013-06-02 03:41:00,60.0,57.0,29.79,WSW,249,4.0,-999.0,91,-99.99,,,-99.99,,2013-06-02 08:41:00,
2013-06-02 03:52:00,60.0,57.0,29.79,WSW,249,4.0,-999.0,91,-99.99,,,-99.99,,2013-06-02 08:52:00,
2013-06-02 04:01:00,61.0,58.0,29.80,West,266,3.0,-999.0,91,-99.99,,,-99.99,,2013-06-02 09:01:00,
2013-06-02 04:11:00,61.0,58.0,29.80,WSW,246,4.0,-999.0,90,-99.99,,,-99.99,,2013-06-02 09:11:00,
2013-06-02 04:21:00,61.0,58.0,29.80,WSW,246,4.0,-999.0,90,-99.99,,,-99.99,,2013-06-02 09:21:00,
2013-06-02 04:33:00,61.0,58.0,29.80,West,269,5.0,-999.0,90,-99.99,,,-99.99,,2013-06-02 09:33:00,
2013-06-02 04:42:00,61.0,58.0,29.80,West,269,5.0,-999.0,90,-99.99,,,-99.99,,2013-06-02 09:42:00,
2013-06-02 04:53:00,61.0,58.0,29.79,WNW,301,6.0,-999.0,91,-99.99,,,-99.99,,2013-06-02 09:53:00,
2013-06-02 05:02:00,61.0,58.0,29.78,West,266,5.0,-999.0,91,-99.99,,,-99.99,,2013-06-02 10:02:00,
2013-06-02 05:12:00,61.0,58.0,29.78,West,266,5.0,-999.0,91,-99.99,,,-99.99,,2013-06-02 10:12:00,
2013-06-02 05:22:00,61.0,58.0,29.79,WNW,295,4.0,-999.0,91,-99.99,,,-99.99,,2013-06-02 10:22:00,
2013-06-02 05:32:00,61.0,58.0,29.80,WNW,297,4.0,-999.0,91,-99.99,,,-99.99,,2013-06-02 10:32:00,
2013-06-02 05:42:00,61.0,58.0,29.80,WNW,297,4.0,-999.0,91,-99.99,,,-99.99,,2013-06-02 10:42:00,
2013-06-02 05:52:00,61.0,58.0,29.80,WNW,293,4.0,-999.0,91,-99.99,,,-99.99,,2013-06-02 10:52:00,
2013-06-02 06:02:00,61.0,58.0,29.81,WNW,302,4.0,-999.0,91,-99.99,,,-99.99,,2013-06-02 11:02:00,
2013-06-02 06:12:00,61.0,58.0,29.81,WNW,302,4.0,-999.0,91,-99.99,,,-99.99,,2013-06-02 11:12:00,
2013-06-02 06:21:00,61.0,58.0,29.81,NW,322,4.0,-999.0,90,-99.99,,,-99.99,,2013-06-02 11:21:00,
2013-06-02 06:32:00,61.0,58.0,29.82,WNW,302,5.0,-999.0,89,-99.99,,,-99.99,,2013-06-02 11:32:00,
2013-06-02 06:42:00,61.0,58.0,29.82,WNW,302,5.0,-999.0,89,-99.99,,,-99.99,,2013-06-02 11:42:00,
2013-06-02 06:52:00,61.0,57.0,29.83,WNW,289,5.0,-999.0,88,-99.99,,,-99.99,,2013-06-02 11:52:00,
2013-06-02 07:01:00,61.0,57.0,29.83,WNW,303,4.0,-999.0,88,-99.99,,,-99.99,,2013-06-02 12:01:00,
2013-06-02 07:11:00,61.0,57.0,29.83,WNW,303,4.0,-999.0,88,-99.99,,,-99.99,,2013-06-02 12:11:00,
2013-06-02 07:21:00,61.0,58.0,29.85,NW,313,3.0,-999.0,89,-99.99,,,-99.99,,2013-06-02 12:21:00,
2013-06-02 07:31:00,61.0,58.0,29.85,West,280,4.0,-999.0,89,-99.99,,,-99.99,,2013-06-02 12:31:00,
2013-06-02 07:42:00,61.0,58.0,29.85,West,280,4.0,-999.0,89,-99.99,,,-99.99,,2013-06-02 12:42:00,
2013-06-02 07:52:00,61.0,57.0,29.85,West,276,5.0,-999.0,88,-99.99,,,-99.99,,2013-06-02 12:52:00,
2013-06-02 08:01:00,61.0,57.0,29.85,WNW,283,5.0,-999.0,87,-99.99,,,-99.99,,2013-06-02 13:01:00,
2013-06-02 08:11:00,61.0,57.0,29.85,WNW,283,5.0,-999.0,87,-99.99,,,-99.99,,2013-06-02 13:11:00,
2013-06-02 08:21:00,61.0,57.0,29.86,WNW,291,4.0,-999.0,87,-99.99,,,-99.99,,2013-06-02 13:21:00,
2013-06-02 08:32:00,61.0,57.0,29.86,WNW,303,5.0,-999.0,88,-99.99,,,-99.99,,2013-06-02 13:32:00,
2013-06-02 08:42:00,61.0,57.0,29.86,WNW,303,5.0,-999.0,88,-99.99,,,-99.99,,2013-06-02 13:42:00,
2013-06-02 08:52:00,61.0,57.0,29.86,NW,310,6.0,-999.0,87,-99.99,,,-99.99,,2013-06-02 13:52:00,
2013-06-02 09:01:00,61.0,57.0,29.87,NW,307,7.0,-999.0,86,-99.99,,,-99.99,,2013-06-02 14:01:00,
2013-06-02 09:11:00,61.0,57.0,29.87,WNW,295,6.0,-999.0,86,-99.99,,,-99.99,,2013-06-02 14:11:00,
2013-06-02 09:21:00,61.0,57.0,29.87,WNW,295,6.0,-999.0,86,-99.99,,,-99.99,,2013-06-02 14:21:00,
2013-06-02 09:32:00,61.0,57.0,29.88,NNW,336,6.0,-999.0,87,-99.99,,,-99.99,,2013-06-02 14:32:00,
2013-06-02 09:42:00,61.0,57.0,29.88,NNW,336,6.0,-999.0,87,-99.99,,,-99.99,,2013-06-02 14:42:00,
2013-06-02 09:52:00,61.0,57.0,29.87,NW,310,7.0,-999.0,86,-99.99,,,-99.99,,2013-06-02 14:52:00,
2013-06-02 10:01:00,61.0,56.0,29.88,NW,312,8.0,-999.0,85,-99.99,,,-99.99,,2013-06-02 15:01:00,
2013-06-02 10:11:00,61.0,56.0,29.88,NW,312,8.0,-999.0,85,-99.99,,,-99.99,,2013-06-02 15:11:00,
2013-06-02 10:21:00,61.0,56.0,29.89,NW,323,6.0,-999.0,85,-99.99,,,-99.99,,2013-06-02 15:21:00,
2013-06-02 10:32:00,61.0,56.0,29.89,NW,308,7.0,-999.0,84,-99.99,,,-99.99,,2013-06-02 15:32:00,
2013-06-02 10:43:00,62.0,57.0,29.90,WNW,282,5.0,-999.0,85,-99.99,,,-99.99,,2013-06-02 15:43:00,
2013-06-02 10:53:00,62.0,57.0,29.90,WNW,282,5.0,-999.0,85,-99.99,,,-99.99,,2013-06-02 15:53:00,
2013-06-02 11:03:00,62.0,57.0,29.90,NW,306,7.0,-999.0,84,-99.99,,,-99.99,,2013-06-02 16:03:00,
2013-06-02 11:13:00,62.0,57.0,29.90,NW,306,7.0,-999.0,84,-99.99,,,-99.99,,2013-06-02 16:13:00,
2013-06-02 11:23:00,63.0,58.0,29.90,NW,324,7.0,-999.0,84,-99.99,,,-99.99,,2013-06-02 16:23:00,
2013-06-02 11:33:00,64.0,58.0,29.89,NW,314,8.0,-999.0,82,-99.99,,,-99.99,,2013-06-02 16:33:00,
2013-06-02 11:42:00,64.0,58.0,29.89,NW,314,8.0,-999.0,82,-99.99,,,-99.99,,2013-06-02 16:42:00,
2013-06-02 11:52:00,64.0,58.0,29.90,NW,314,8.0,-999.0,81,-99.99,,,-99.99,,2013-06-02 16:52:00,
2013-06-02 12:02:00,63.0,58.0,29.90,NW,318,7.0,-999.0,83,-99.99,,,-99.99,,2013-06-02 17:02:00,
2013-06-02 12:12:00,63.0,57.0,29.90,NNW,341,7.0,-999.0,81,-99.99,,,-99.99,,2013-06-02 17:12:00,
2013-06-02 12:22:00,63.0,57.0,29.90,NNW,341,7.0,-999.0,81,-99.99,,,-99.99,,2013-06-02 17:22:00,
2013-06-02 12:32:00,63.0,57.0,29.90,NNW,345,9.0,-999.0,81,-99.99,,,-99.99,,2013-06-02 17:32:00,
2013-06-02 12:42:00,62.0,56.0,29.91,NW,316,11.0,-999.0,80,-99.99,,,-99.99,,2013-06-02 17:42:00,
2013-06-02 12:52:00,62.0,56.0,29.91,NW,316,11.0,-999.0,80,-99.99,,,-99.99,,2013-06-02 17:52:00,
2013-06-02 13:01:00,63.0,57.0,29.92,NNW,340,6.0,-999.0,80,-99.99,,,-99.99,,2013-06-02 18:01:00,
2013-06-02 13:11:00,64.0,56.0,29.92,NNW,347,5.0,-999.0,76,-99.99,,,-99.99,,2013-06-02 18:11:00,
2013-06-02 13:21:00,64.0,56.0,29.92,NNW,347,5.0,-999.0,76,-99.99,,,-99.99,,2013-06-02 18:21:00,
2013-06-02 13:32:00,65.0,58.0,29.92,NNE,14,7.0,-999.0,78,-99.99,,,-99.99,,2013-06-02 18:32:00,
2013-06-02 13:42:00,64.0,57.0,29.92,NW,312,7.0,-999.0,78,-99.99,,,-99.99,,2013-06-02 18:42:00,
2013-06-02 13:52:00,64.0,57.0,29.92,NW,312,7.0,-999.0,78,-99.99,,,-99.99,,2013-06-02 18:52:00,
2013-06-02 14:01:00,63.0,56.0,29.92,North,360,7.0,-999.0,78,-99.99,,,-99.99,,2013-06-02 19:01:00,
2013-06-02 14:11:00,63.0,56.0,29.92,North,360,7.0,-999.0,78,-99.99,,,-99.99,,2013-06-02 19:11:00,
2013-06-02 14:21:00,63.0,56.0,29.93,NW,323,7.0,-999.0,78,-99.99,,,-99.99,,2013-06-02 19:21:00,
2013-06-02 14:32:00,62.0,56.0,29.93,NW,312,10.0,-999.0,80,-99.99,,,-99.99,,2013-06-02 19:32:00,
2013-06-02 14:42:00,62.0,56.0,29.93,NW,312,10.0,-999.0,80,-99.99,,,-99.99,,2013-06-02 19:42:00,
2013-06-02 14:52:00,61.0,55.0,29.94,NW,314,6.0,-999.0,81,-99.99,,,-99.99,,2013-06-02 19:52:00,
2013-06-02 15:02:00,61.0,55.0,29.94,NW,321,7.0,-999.0,81,-99.99,,,-99.99,,2013-06-02 20:02:00,
2013-06-02 15:11:00,61.0,55.0,29.94,NW,321,7.0,-999.0,81,-99.99,,,-99.99,,2013-06-02 20:11:00,
2013-06-02 15:21:00,61.0,56.0,29.94,NNW,343,6.0,-999.0,83,-99.99,,,-99.99,,2013-06-02 20:21:00,
2013-06-02 15:32:00,61.0,56.0,29.94,NNW,347,5.0,-999.0,84,-99.99,,,-99.99,,2013-06-02 20:32:00,
2013-06-02 15:42:00,61.0,56.0,29.94,NNW,347,5.0,-999.0,84,-99.99,,,-99.99,,2013-06-02 20:42:00,
2013-06-02 15:52:00,62.0,56.0,29.94,NW,326,5.0,-999.0,81,-99.99,,,-99.99,,2013-06-02 20:52:00,
2013-06-02 16:01:00,62.0,56.0,29.94,NNW,339,4.0,-999.0,80,-99.99,,,-99.99,,2013-06-02 21:01:00,
2013-06-02 16:11:00,62.0,55.0,29.94,NW,310,5.0,-999.0,79,-99.99,,,-99.99,,2013-06-02 21:11:00,
2013-06-02 16:21:00,62.0,55.0,29.94,NW,310,5.0,-999.0,79,-99.99,,,-99.99,,2013-06-02 21:21:00,
2013-06-02 16:33:00,62.0,55.0,29.94,NNE,21,4.0,-999.0,77,-99.99,,,-99.99,,2013-06-02 21:33:00,
2013-06-02 16:42:00,62.0,55.0,29.94,NNE,21,4.0,-999.0,77,-99.99,,,-99.99,,2013-06-02 21:42:00,
2013-06-02 16:53:00,62.0,55.0,29.94,WNW,299,4.0,-999.0,78,-99.99,,,-99.99,,2013-06-02 21:53:00,
2013-06-02 17:03:00,62.0,55.0,29.93,North,349,4.0,-999.0,79,-99.99,,,-99.99,,2013-06-02 22:03:00,
2013-06-02 17:12:00,62.0,55.0,29.93,North,349,4.0,-999.0,79,-99.99,,,-99.99,,2013-06-02 22:12:00,
2013-06-02 17:23:00,62.0,56.0,29.93,North,358,3.0,-999.0,80,-99.99,,,-99.99,,2013-06-02 22:23:00,
2013-06-02 17:33:00,62.0,56.0,29.93,NNW,344,4.0,-999.0,80,-99.99,,,-99.99,,2013-06-02 22:33:00,
2013-06-02 17:42:00,62.0,56.0,29.93,NNW,344,4.0,-999.0,80,-99.99,,,-99.99,,2013-06-02 22:42:00,
2013-06-02 17:52:00,62.0,56.0,29.93,NW,326,5.0,-999.0,80,-99.99,,,-99.99,,2013-06-02 22:52:00,
2013-06-02 18:02:00,62.0,55.0,29.93,NNW,330,3.0,-999.0,79,-99.99,,,-99.99,,2013-06-02 23:02:00,
2013-06-02 18:12:00,62.0,55.0,29.93,NNW,330,3.0,-999.0,79,-99.99,,,-99.99,,2013-06-02 23:12:00,
2013-06-02 18:22:00,62.0,55.0,29.93,NW,312,3.0,-999.0,79,-99.99,,,-99.99,,2013-06-02 23:22:00,
2013-06-02 18:32:00,61.0,54.0,29.93,NW,326,4.0,-999.0,79,-99.99,,,-99.99,,2013-06-02 23:32:00,
2013-06-02 18:42:00,61.0,54.0,29.93,NW,326,4.0,-999.0,79,-99.99,,,-99.99,,2013-06-02 23:42:00,
2013-06-02 18:52:00,61.0,54.0,29.93,NNW,328,3.0,-999.0,79,-99.99,,,-99.99,,2013-06-02 23:52:00,
2013-06-02 19:01:00,61.0,55.0,29.93,NNW,347,3.0,-999.0,80,-99.99,,,-99.99,,2013-06-03 00:01:00,
2013-06-02 19:11:00,61.0,55.0,29.93,NNE,25,2.0,-999.0,82,-99.99,,,-99.99,,2013-06-03 00:11:00,
2013-06-02 19:21:00,61.0,55.0,29.93,NNE,25,2.0,-999.0,82,-99.99,,,-99.99,,2013-06-03 00:21:00,
2013-06-02 19:32:00,60.0,54.0,29.93,NNW,345,3.0,-999.0,81,-99.99,,,-99.99,,2013-06-03 00:32:00,
2013-06-02 19:42:00,60.0,54.0,29.93,North,349,3.0,-999.0,82,-99.99,,,-99.99,,2013-06-03 00:42:00,
2013-06-02 19:52:00,60.0,54.0,29.93,North,349,3.0,-999.0,82,-99.99,,,-99.99,,2013-06-03 00:52:00,
2013-06-02 20:01:00,60.0,54.0,29.93,NW,322,3.0,-999.0,82,-99.99,,,-99.99,,2013-06-03 01:01:00,
2013-06-02 20:11:00,60.0,54.0,29.93,NW,322,3.0,-999.0,82,-99.99,,,-99.99,,2013-06-03 01:11:00,
2013-06-02 20:21:00,60.0,54.0,29.93,North,350,3.0,-999.0,82,-99.99,,,-99.99,,2013-06-03 01:21:00,
2013-06-02 20:32:00,59.0,54.0,29.93,NW,316,4.0,-999.0,83,-99.99,,,-99.99,,2013-06-03 01:32:00,
2013-06-02 20:42:00,59.0,54.0,29.93,NW,316,4.0,-999.0,83,-99.99,,,-99.99,,2013-06-03 01:42:00,
2013-06-02 20:52:00,59.0,54.0,29.93,NW,322,2.0,-999.0,83,-99.99,,,-99.99,,2013-06-03 01:52:00,
2013-06-02 21:02:00,59.0,54.0,29.93,NW,326,2.0,-999.0,82,-99.99,,,-99.99,,2013-06-03 02:02:00,
2013-06-02 21:12:00,59.0,54.0,29.93,NW,326,2.0,-999.0,82,-99.99,,,-99.99,,2013-06-03 02:12:00,
2013-06-02 21:22:00,59.0,54.0,29.94,NW,320,3.0,-999.0,84,-99.99,,,-99.99,,2013-06-03 02:22:00,
2013-06-02 21:32:00,59.0,54.0,29.95,NW,324,3.0,-999.0,84,-99.99,,,-99.99,,2013-06-03 02:32:00,
2013-06-02 21:42:00,59.0,54.0,29.95,NW,324,3.0,-999.0,84,-99.99,,,-99.99,,2013-06-03 02:42:00,
2013-06-02 21:52:00,59.0,54.0,29.95,NW,322,2.0,-999.0,84,-99.99,,,-99.99,,2013-06-03 02:52:00,
2013-06-02 22:02:00,59.0,54.0,29.96,North,353,3.0,-999.0,82,-99.99,,,-99.99,,2013-06-03 03:02:00,
2013-06-02 22:12:00,59.0,54.0,29.96,North,356,3.0,-999.0,82,-99.99,,,-99.99,,2013-06-03 03:12:00,
2013-06-02 22:22:00,59.0,54.0,29.96,North,356,3.0,-999.0,82,-99.99,,,-99.99,,2013-06-03 03:22:00,
2013-06-02 22:33:00,58.0,53.0,29.97,North,351,3.0,-999.0,82,-99.99,,,-99.99,,2013-06-03 03:33:00,
2013-06-02 22:43:00,58.0,53.0,29.97,North,351,3.0,-999.0,82,-99.99,,,-99.99,,2013-06-03 03:43:00,
2013-06-02 22:53:00,58.0,53.0,29.97,NNW,331,2.0,-999.0,82,-99.99,,,-99.99,,2013-06-03 03:53:00,
2013-06-02 23:03:00,58.0,53.0,29.98,NNW,331,1.0,-999.0,82,-99.99,,,-99.99,,2013-06-03 04:03:00,
2013-06-02 23:12:00,58.0,53.0,29.98,NNW,331,1.0,-999.0,82,-99.99,,,-99.99,,2013-06-03 04:12:00,
2013-06-02 23:23:00,58.0,53.0,29.98,NNW,331,0.0,-999.0,83,-99.99,,,-99.99,,2013-06-03 04:23:00,
2013-06-02 23:33:00,58.0,53.0,29.97,NNW,331,1.0,-999.0,83,-99.99,,,-99.99,,2013-06-03 04:33:00,
2013-06-02 23:42:00,58.0,53.0,29.97,NNW,331,2.0,-999.0,84,-99.99,,,-99.99,,2013-06-03 04:42:00,
2013-06-02 23:53:00,58.0,53.0,29.97,NNW,331,2.0,-999.0,84,-99.99,,,-99.99,,2013-06-03 04:53:00,